Track SPACE STATION now! 10-day predictions The ISS Notification Tool HD Live streaming from Space Station SPACE STATION is classified as:
1 25544U 98067A 25182.83204607 .00005749 00000-0 10743-3 0 9991 2 25544 51.6347 234.4916 0002352 318.4634 41.6176 15.50322094517434